Location: Tamazert
(32.6352°N, 5.2072°W)
Time: 23:12:40
(UTC+00:00)

USA 267 - Pass Details

Date: 22 May 2022
Orbit: 1101 x 1106 km, 123.0° (Epoch: 22 June)

Event Time Altitude Azimuth Distance (km) Brightness Sun altitude
Exits shadow 00:27:41 55° 350° (N) 1,308 3.8 -37.0°
Drops below altitude 10° 00:32:49 10° 323° (NW) 2,960 6.0 -36.9°
Sets 00:35:19 0° 321° (NW) 3,921 6.7 -36.8°
